User: anonymous   Login
Location: Killarney Provincial Park Observatory
(46.0124°N, 81.4000°W)
Time: 13:12:51
(UTC-05:00)
Language:

Iridium 22 - Orbit

View from above orbital plane
View from above orbital plane
View from above satellite
View from above satellite

Ground track
Ground track

The orbit data is extracted from the following two-line orbital elements,

1 24907U 97043E   17019.37544414  .00000186  00000-0  59416-4 0  9999
2 24907  86.3989 318.2998 0002153  85.6608 274.4834 14.34214973 16503
Epoch (UTC): 19 January 2017 09:00:38
Eccentricity: 0.0002153
inclination: 86.3989°
perigee height: 776 km
apogee height: 779 km
right ascension of ascending node: 318.2998°
argument of perigee: 85.6608°
revolutions per day: 14.34214973
mean anomaly at epoch: 274.4834°
orbit number at epoch: 1650

The dashed part of the orbit path shows where the satellite is in the earth's shadow,  

DLR